[[{"header":{"parameterUnit":"m.s-1","parameterCategory":1,"la1":30.2992,"la2":30.254,"lo1":-89.0895,"lo2":-89.0443,"dy":0.0025,"dx":0.0025,"nx":19,"ny":19,"refTime":"2026-05-03T03:00:00:Z","depth":0,"parameterNumber":2,"parameterNumberName":"U-component_of_WINDS"},"data":[0,0,0,-0.5294,-0.5296,-0.5386,-0.5386,-0.5505,-0.5506,0,0,0,0,0,0,0,0,0,0,0,-0.5267,-0.5267,-0.5294,-0.5296,-0.5386,-0.5386,-0.5505,-0.5506,0,0,0,0,0,0,0,0,0,0,0,-0.5266,-0.5267,-0.5268,-0.5297,-0.5386,-0.5386,-0.5505,-0.5436,0,0,0,0,0,0,0,0,0,0,-0.5349,-0.5321,-0.5267,-0.5268,-0.5297,-0.5386,-0.5387,-0.5433,-0.5441,-0.5465,0,-0.5483,0,-0.5496,-0.5514,-0.5514,0,0,0,-0.5298,-0.5315,-0.534,-0.5268,-0.5298,-0.5386,-0.5346,-0.5437,-0.5446,-0.5475,-0.5485,-0.5489,-0.5498,-0.5515,-0.5515,-0.5644,-0.5644,0,0,-0.5293,-0.5283,-0.5334,-0.5345,-0.5328,-0.5343,-0.5349,-0.5442,-0.5454,-0.5486,-0.5492,-0.55,-0.5516,-0.5516,-0.5643,-0.5644,0,0,0,-0.5278,-0.528,-0.5302,-0.534,-0.5356,-0.5346,-0.5352,-0.545,-0.5458,-0.5494,-0.5502,-0.5516,-0.5518,-0.5643,-0.5643,-0.5659,0,0,0,-0.5275,-0.5271,-0.53,-0.5295,-0.5354,-0.5403,-0.5358,-0.5451,-0.5462,-0.5501,-0.5516,-0.5519,-0.5642,-0.5643,-0.5657,-0.5669,0,0,0,-0.5261,-0.5269,-0.5281,-0.5294,-0.5332,-0.5402,-0.5416,-0.5454,-0.5467,-0.5514,-0.5519,-0.5642,-0.5643,-0.5656,-0.5667,-0.5701,0,0,0,-0.5245,-0.5295,-0.5281,-0.5341,-0.5331,-0.541,-0.5415,-0.5475,-0.5517,-0.5517,-0.5642,-0.5643,-0.5656,-0.5665,-0.5699,-0.5728,-0.5738,0,0,-0.5303,-0.5301,-0.5337,-0.5328,-0.5406,-0.5397,-0.5479,-0.5529,-0.5544,-0.561,-0.5614,-0.5658,-0.5666,-0.57,-0.58,-0.5808,0,0,0,-0.5353,-0.5378,-0.5401,-0.544,-0.5477,-0.5511,-0.5548,-0.5567,-0.5623,-0.5575,-0.5679,-0.5685,-0.5705,-0.5719,-0.5727,-0.5745,-0.5649,-0.5649,-0.5649,-0.5421,-0.5436,-0.5497,-0.5522,-0.556,-0.5598,-0.5631,-0.5663,-0.5668,-0.5692,-0.5713,-0.5771,-0.5787,-0.5793,-0.5812,-0.5728,-0.5728,-0.5728,-0.5728,-0.5508,-0.5548,-0.5552,-0.5612,-0.5629,-0.5681,-0.5721,-0.5723,-0.5776,-0.5757,-0.5776,-0.5755,-0.5801,-0.5819,-0.573,-0.5729,-0.5729,-0.5729,-0.5729,-0.5556,-0.5577,-0.5597,-0.5655,-0.5699,-0.5724,-0.5774,-0.5788,-0.5801,-0.5819,-0.5843,-0.5843,-0.5846,-0.5829,-0.583,-0.583,-0.583,-0.583,-0.583,-0.5597,-0.5619,-0.5659,-0.5702,-0.573,-0.5767,-0.5806,-0.5835,-0.587,-0.5876,-0.5876,-0.588,-0.5802,-0.5783,-0.5834,-0.5833,-0.5833,-0.5832,-0.5832,-0.5682,-0.5665,-0.5725,-0.5752,-0.5806,-0.5849,-0.5865,-0.5922,-0.5947,-0.5972,-0.5972,-0.5912,-0.5912,-0.5907,-0.5891,-0.5967,-0.5967,-0.5967,-0.5967,-0.5723,-0.5724,-0.5789,-0.5832,-0.5875,-0.5896,-0.5967,-0.5999,-0.603,-0.6047,-0.6038,-0.6018,-0.6012,-0.6017,-0.6009,-0.5995,-0.6095,-0.6095,-0.6095,-0.5777,-0.5782,-0.5839,-0.5866,-0.5909,-0.5947,-0.6015,-0.6067,-0.6099,-0.6101,-0.6062,-0.6056,-0.6024,-0.6013,-0.6015,-0.6002,-0.5976,0,0]},{"header":{"parameterUnit":"m.s-1","parameterCategory":1,"la1":30.2992,"la2":30.254,"lo1":-89.0895,"lo2":-89.0443,"dy":0.0025,"dx":0.0025,"nx":19,"ny":19,"refTime":"2026-05-03T03:00:00:Z","depth":0,"parameterNumber":3,"parameterNumberName":"V-component_of_WINDS"},"data":[0,0,0,0.1186,0.1184,0.1082,0.1082,0.0962,0.0961,0,0,0,0,0,0,0,0,0,0,0,0.1222,0.1221,0.1186,0.1183,0.1082,0.1082,0.0962,0.0961,0,0,0,0,0,0,0,0,0,0,0,0.1222,0.1221,0.1221,0.1183,0.1082,0.1082,0.0962,0.1035,0,0,0,0,0,0,0,0,0,0,0.1132,0.1171,0.1221,0.122,0.1183,0.1082,0.1082,0.1038,0.103,0.1012,0,0.0997,0,0.0977,0.0953,0.0953,0,0,0,0.1179,0.1178,0.1145,0.122,0.1182,0.1083,0.1127,0.1034,0.1025,0.1001,0.0995,0.099,0.0975,0.0953,0.0952,0.0859,0.0859,0,0,0.1184,0.1207,0.1151,0.114,0.1156,0.113,0.1123,0.1028,0.1023,0.0995,0.0987,0.0973,0.0952,0.0951,0.0859,0.0859,0,0,0,0.1204,0.1211,0.118,0.1145,0.1126,0.1127,0.112,0.1027,0.1015,0.0986,0.0972,0.0951,0.095,0.086,0.0859,0.087,0,0,0,0.1207,0.1222,0.1183,0.1195,0.1128,0.1075,0.1121,0.1022,0.101,0.0972,0.0951,0.0949,0.086,0.0859,0.0871,0.0872,0,0,0,0.1226,0.1224,0.1212,0.1197,0.1154,0.1076,0.1059,0.1019,0.1002,0.0953,0.0948,0.086,0.086,0.0871,0.0872,0.0854,0,0,0,0.1254,0.1223,0.1212,0.1172,0.1155,0.1084,0.1059,0.1005,0.0964,0.0951,0.086,0.0859,0.0871,0.0872,0.0855,0.0844,0.0841,0,0,0.1227,0.1221,0.1195,0.1183,0.1119,0.1097,0.1035,0.0977,0.0951,0.0891,0.0889,0.0871,0.0872,0.0855,0.0818,0.0816,0,0,0,0.1194,0.1177,0.1155,0.1117,0.1072,0.1033,0.0981,0.096,0.0907,0.0925,0.0858,0.0859,0.0847,0.0841,0.0839,0.0828,0.0857,0.0857,0.0857,0.119,0.1159,0.1115,0.1072,0.1036,0.0983,0.0951,0.0912,0.0892,0.0877,0.0859,0.0841,0.0834,0.0833,0.0822,0.085,0.085,0.085,0.085,0.1149,0.1119,0.1093,0.1041,0.1008,0.0964,0.0911,0.0898,0.0853,0.0852,0.084,0.0842,0.0832,0.082,0.0851,0.0851,0.0851,0.085,0.085,0.1144,0.1124,0.1098,0.104,0.0998,0.0955,0.0912,0.0884,0.0857,0.0846,0.0824,0.0824,0.082,0.0837,0.0837,0.0837,0.0837,0.0837,0.0837,0.1148,0.1118,0.1086,0.1034,0.1006,0.0966,0.0911,0.0883,0.0844,0.0827,0.0826,0.0808,0.0836,0.0844,0.0836,0.0836,0.0836,0.0836,0.0836,0.112,0.1121,0.1071,0.1043,0.098,0.0941,0.0905,0.0849,0.0821,0.0801,0.0784,0.081,0.0801,0.0802,0.0808,0.0791,0.0791,0.0791,0.0791,0.1115,0.1108,0.105,0.1007,0.0961,0.0923,0.0867,0.0824,0.0781,0.0762,0.076,0.0766,0.0768,0.0758,0.076,0.0765,0.0737,0.0737,0.0737,0.1096,0.1083,0.1041,0.0998,0.0946,0.0903,0.0849,0.0801,0.0751,0.0734,0.0746,0.0748,0.0757,0.0762,0.0747,0.0751,0.076,0,0]}]]